Wind_Speed
6 2 1 2 2 1 1 3 2 7 3 3 4 3 1 2 1 2 2 2 7 9 21 22 22 21 19 18 17 17 17 19 22 23 23 24 25 25 24 23 23 22 21 20 17 15 13 10 8
4 2 3 2 1 0 3 2 8 9 9 10 4 1 2 3 1 1 2 5 3 7 23 24 23 22 20 18 18 17 17 17 20 22 23 24 25 26 24 23 23 23 20 20 19 16 14 12 10
2 3 1 3 2 1 3 1 9 11 6 3 1 3 1 2 2 2 5 3 3 9 19 21 21 20 19 18 17 17 17 17 18 21 23 25 25 25 24 23 23 23 22 21 19 18 16 13 11
1 2 3 1 1 1 2 6 8 10 6 11 3 4 1 4 5 7 5 5 3 7 15 18 19 19 18 17 16 16 16 17 18 19 22 24 25 24 24 24 23 23 22 20 20 18 16 15 12
5 1 2 3 2 2 3 3 4 12 5 13 9 4 2 2 6 5 4 3 2 4 9 13 16 17 17 17 17 16 16 17 19 20 21 23 24 24 24 24 24 23 22 21 19 17 16 15 14
2 1 1 1 2 3 4 4 3 11 8 14 7 6 4 8 8 8 7 5 2 2 6 11 14 16 17 17 18 18 18 18 19 21 22 23 24 25 24 24 23 22 22 21 19 17 16 15 15
2 1 2 4 2 3 2 2 5 6 7 11 5 3 4 9 12 8 8 6 4 4 6 10 13 16 17 17 17 18 18 18 19 21 22 22 23 23 23 23 23 21 21 20 20 19 17 16 15
3 2 3 2 3 1 4 5 3 6 2 9 4 4 5 9 15 9 7 6 5 5 7 9 12 15 16 16 17 17 16 17 18 20 21 22 22 22 22 22 21 21 20 19 19 19 18 17 16
1 1 2 2 5 1 5 8 5 7 3 5 3 4 8 13 20 13 8 6 6 7 8 10 13 15 16 16 17 17 17 16 17 18 19 20 18 19 20 21 21 21 20 19 19 18 17 16 15
2 2 4 2 0 4 8 9 9 8 12 2 8 7 9 18 17 15 15 15 9 10 12 12 13 15 15 15 16 16 17 18 18 18 18 19 19 18 17 19 22 21 21 20 19 17 15 15 13
2 3 3 2 2 4 2 6 2 7 5 10 13 17 17 16 17 17 20 20 16 13 14 15 14 14 15 16 15 16 16 16 18 19 19 18 20 21 20 17 18 18 19 18 19 17 17 16 15
1 3 2 2 2 3 5 2 6 7 8 9 12 11 8 15 15 20 21 19 16 15 15 12 14 15 15 16 15 16 16 15 15 17 18 20 19 19 20 18 18 19 16 17 20 20 20 20 18
2 2 4 5 8 6 5 8 6 7 7 8 8 11 13 12 17 20 18 16 12 10 10 9 8 10 12 13 14 13 14 15 15 14 15 16 17 19 19 16 18 18 18 18 19 23 25 25 24
0 3 8 4 12 5 5 2 6 2 9 10 12 12 12 15 20 21 24 20 19 16 16 14 10 6 4 6 10 10 10 11 13 13 14 13 15 16 15 16 16 19 20 21 24 24 24 24 27
4 6 7 4 1 2 3 2 4 3 11 12 11 11 15 16 21 22 20 22 20 20 19 20 17 14 7 4 1 3 2 6 9 7 9 8 11 14 14 17 18 17 17 12 21 23 24 21 20
2 1 3 1 4 3 1 4 7 14 13 15 9 10 13 17 20 21 22 22 22 22 24 24 21 18 14 13 11 8 6 3 3 2 2 3 6 12 13 15 21 20 12 11 11 19 22 25 26
2 3 2 5 5 6 8 5 11 15 10 12 13 11 12 13 19 22 22 22 23 23 23 25 26 24 18 11 11 12 11 10 9 8 8 7 5 4 7 15 19 22 19 23 18 22 24 25 25
1 2 2 3 4 12 11 10 9 12 11 12 10 9 12 13 14 18 21 22 23 23 24 24 24 25 22 17 8 8 13 12 11 11 10 10 11 9 8 8 9 11 13 16 26 37 36 33 21
3 3 8 8 9 5 7 12 11 13 7 10 7 9 11 12 13 17 20 21 22 25 25 25 25 26 25 22 16 10 12 10 10 12 15 15 15 14 12 12 13 10 10 12 24 22 22 24 21
9 9 11 7 6 7 8 16 12 6 5 6 7 8 9 9 11 14 17 20 23 22 23 22 23 23 22 19 16 9 11 7 7 12 15 16 17 17 13 12 11 10 11 11 12 18 23 28 30
6 8 9 8 7 6 8 6 5 5 7 7 8 8 9 8 8 9 13 16 17 20 20 21 20 21 21 20 17 15 8 10 10 16 15 17 15 15 15 14 13 12 11 12 13 13 16 18 19
6 11 11 8 7 4 5 6 8 4 5 5 5 6 6 6 6 6 7 10 13 14 15 17 17 20 20 20 18 18 14 14 15 16 17 17 14 16 14 14 14 13 12 14 14 13 15 14 17
6 5 6 7 8 5 4 6 2 6 2 4 6 6 5 5 4 4 9 11 13 14 16 15 17 18 20 19 17 16 15 15 16 17 20 17 15 14 15 14 14 15 16 15 16 17 16 16 19
2 1 2 2 3 6 9 9 3 7 6 7 9 8 7 5 2 5 7 8 12 14 16 15 17 16 17 17 16 16 16 17 18 19 18 20 19 18 15 16 17 16 15 16 19 20 18 17 19
5 3 3 3 3 5 3 6 11 8 10 10 14 12 9 4 2 3 8 12 14 16 18 19 19 18 19 19 19 16 16 15 16 17 18 22 21 20 20 21 19 18 19 19 20 23 24 21 20
6 7 4 4 3 3 3 6 3 4 7 7 10 11 8 5 2 5 8 11 13 16 19 20 21 20 21 20 19 18 18 17 16 18 18 18 20 21 22 22 22 21 21 20 20 23 25 24 24
4 6 2 4 1 5 5 7 4 9 7 9 12 12 10 5 3 5 8 10 13 17 17 17 19 20 20 21 20 19 19 20 19 19 18 19 19 21 21 22 23 22 23 23 23 23 24 26 27
6 6 3 1 4 6 6 7 9 9 13 13 15 14 11 10 7 4 6 9 11 12 13 15 17 19 19 19 19 19 19 18 18 17 18 19 19 19 20 22 23 24 23 22 23 23 22 25 26
4 4 2 2 3 4 7 7 5 11 13 17 17 15 12 11 8 5 6 8 10 11 13 15 15 16 19 19 19 19 19 18 19 18 20 20 20 21 20 21 23 24 24 23 24 24 25 24 24
3 5 8 7 7 5 5 11 1 5 7 12 10 8 10 9 8 5 6 8 10 12 13 14 14 15 16 16 17 17 18 18 19 18 19 19 20 21 22 21 20 22 21 22 23 24 23 25 26
Wind_Direction
353 23 5 47 221 41 63 111 288 314 255 245 307 205 268 50 79 93 352 334 241 242 189 182 183 186 186 184 178 171 168 167 168 169 167 166 165 165 167 168 169 170 174 180 174 173 173 166 159
6 337 43 88 118 147 113 284 331 308 300 307 269 265 30 53 339 36 21 350 332 177 179 183 185 187 188 189 188 182 177 173 173 175 174 172 171 170 171 173 174 173 177 182 176 179 184 181 180
17 35 16 77 101 158 107 284 326 320 325 249 172 22 45 15 12 8 355 8 44 168 182 188 189 191 192 192 194 192 186 183 180 181 181 178 177 176 175 177 177 178 182 184 183 186 188 189 188
352 53 85 46 170 123 245 336 350 1 358 18 338 83 33 344 337 342 350 19 44 166 185 195 196 198 198 199 199 199 198 194 192 190 188 187 183 182 181 180 182 183 185 190 189 192 191 192 193
40 58 75 78 319 267 253 300 2 17 13 359 347 4 52 36 353 11 353 1 52 188 204 210 208 209 208 206 207 208 208 206 200 199 197 193 192 191 188 186 186 188 189 193 194 197 195 193 191
65 55 129 144 236 260 285 352 51 20 0 5 22 352 9 332 7 358 2 354 326 247 228 221 218 219 218 218 215 214 214 213 210 206 204 203 200 198 195 192 191 192 192 193 197 198 200 202 197
94 89 161 153 224 280 166 15 48 8 4 13 318 26 319 354 351 350 335 344 309 267 237 224 223 223 224 225 227 224 222 220 217 212 210 210 209 206 203 199 197 196 198 199 198 200 203 204 205
105 83 153 198 178 206 32 12 346 9 41 314 336 11 357 338 342 327 304 301 311 277 258 243 233 228 230 231 233 233 235 234 229 224 217 215 213 212 211 208 206 204 204 206 206 205 206 210 211
133 116 218 199 179 77 18 19 339 291 292 316 334 299 315 322 335 316 315 303 283 279 264 246 241 235 233 237 241 237 234 236 237 234 227 223 215 215 216 215 215 213 212 211 214 213 212 215 219
77 191 207 173 55 9 3 10 335 328 338 329 314 310 323 324 329 322 315 310 291 269 263 256 243 239 239 243 243 239 235 233 231 231 228 222 221 219 219 220 222 220 223 221 220 221 221 221 226
122 223 169 124 80 55 11 322 274 297 315 312 316 323 328 321 327 323 304 288 286 287 264 257 251 243 243 244 243 240 243 238 236 232 230 227 227 223 222 222 224 226 229 229 226 226 223 224 226
293 264 287 322 51 332 291 267 287 275 273 315 311 304 306 339 337 331 323 309 303 294 282 273 260 253 250 246 243 244 243 242 241 240 232 228 229 229 226 225 223 222 220 227 230 226 226 233 234
209 313 322 306 294 268 260 254 245 263 330 322 322 331 4 4 350 350 336 336 334 3 0 330 317 299 277 259 252 250 251 250 246 242 235 227 227 230 233 230 236 233 233 233 230 233 233 233 238
130 289 299 294 288 281 257 236 178 173 349 345 343 8 32 25 15 20 25 26 32 34 31 28 25 18 315 269 258 263 264 259 249 242 240 228 228 232 238 239 242 249 238 243 247 246 239 236 236
326 315 319 285 11 56 249 123 154 357 339 338 350 28 46 39 38 37 35 38 37 39 35 38 39 45 52 48 229 210 250 269 241 229 220 213 222 232 237 237 236 242 258 265 264 254 247 242 240
307 76 300 60 330 38 79 251 315 329 342 333 346 49 57 48 45 41 42 41 40 42 37 36 39 41 49 57 61 81 95 99 76 23 347 279 236 238 234 241 238 245 236 226 264 271 250 243 242
354 264 206 319 13 25 34 294 307 318 325 320 336 54 70 59 48 41 41 40 38 39 37 34 35 35 30 37 50 55 60 69 66 59 48 37 20 321 288 263 264 265 254 236 204 242 278 250 234
228 245 226 258 309 326 306 283 281 299 318 329 8 71 68 67 55 48 45 43 41 38 37 35 31 30 30 31 34 32 32 33 30 31 19 8 355 341 330 311 295 282 266 241 234 240 230 249 231
109 273 282 274 273 286 276 292 291 292 26 358 26 89 81 69 63 53 47 42 40 39 35 32 29 25 24 21 15 2 2 12 11 7 2 353 349 340 330 318 317 316 284 253 251 241 238 243 244
254 271 273 290 268 288 295 298 312 62 61 44 85 85 89 84 61 50 44 42 41 37 33 30 28 25 25 21 9 352 341 347 5 348 349 355 350 344 341 329 317 319 304 287 256 247 248 249 245
240 242 256 265 306 273 316 289 162 80 89 84 80 99 94 85 75 56 45 39 35 35 29 27 25 23 21 17 11 6 349 346 348 348 346 347 352 340 337 330 323 314 307 294 288 274 257 253 245
246 231 246 267 308 294 2 298 215 165 104 90 104 102 103 98 90 77 61 51 42 38 32 27 24 21 17 15 13 13 4 353 341 336 336 340 351 337 332 327 322 318 310 300 292 287 288 281 268
241 188 257 276 275 300 218 255 180 154 212 183 164 151 143 127 118 82 39 35 27 19 18 22 22 19 15 11 11 7 358 348 340 338 340 335 332 328 328 327 325 320 309 302 296 290 279 273 271
105 200 28 32 261 259 227 227 176 190 204 186 186 183 176 174 87 52 45 33 28 18 15 12 19 15 10 7 5 5 358 350 345 338 336 334 330 323 322 322 320 314 306 304 302 298 289 279 272
185 153 284 258 204 266 349 224 255 189 188 192 188 189 187 158 80 34 32 26 19 15 18 14 11 12 9 9 3 360 355 349 342 341 339 331 328 325 319 322 323 313 305 299 294 288 283 278 271
178 187 199 252 220 282 330 247 261 170 171 182 183 188 178 165 142 62 38 27 15 16 15 14 3 10 6 5 357 357 353 353 346 341 335 328 326 321 322 323 317 311 306 299 293 284 280 275 269
159 198 198 261 189 269 244 254 209 170 193 190 195 190 192 181 107 58 36 27 21 15 16 9 3 6 3 0 355 356 350 352 347 339 337 332 328 326 324 323 318 316 310 303 298 286 278 274 271
206 149 160 104 248 246 235 252 245 214 221 211 213 208 196 149 135 84 44 31 25 19 13 13 9 6 0 360 358 353 352 349 347 344 341 341 338 337 334 325 322 323 316 306 298 291 284 275 268
165 205 185 222 193 263 274 256 209 220 218 208 211 209 191 152 127 97 55 42 32 20 17 15 12 8 7 4 359 358 357 354 356 353 352 350 349 349 344 340 334 329 324 315 307 299 290 278 273
311 245 210 232 227 223 283 264 341 252 217 205 201 175 139 123 112 91 67 49 34 20 16 14 10 12 9 6 5 6 2 4 5 2 0 357 357 358 355 350 342 337 331 328 319 306 293 282 275
Height
787 786 785 785 795 797 805 800 798 791 788 775 773 774 773 772 773 785 767 767 767 766 769 772 775 778 781 783 786 788 790 791 791 792 792 792 793 796 798 801 803 805 809 810 813 816 817 819 820
787 786 786 790 797 802 802 800 795 787 780 777 775 772 771 776 768 766 767 767 766 765 768 771 774 777 780 783 785 788 791 792 792 792 792 793 794 796 798 801 803 805 807 809 811 813 816 817 819
787 786 787 796 810 802 803 796 792 784 780 779 774 771 772 775 769 769 768 767 767 768 770 773 775 777 780 783 786 789 791 792 793 793 794 794 794 796 798 800 803 805 807 808 810 811 813 816 818
787 788 796 799 805 806 802 793 792 785 777 774 774 776 774 774 773 773 771 769 769 771 773 775 777 778 780 783 786 789 791 793 794 794 794 795 795 796 798 799 802 805 807 808 810 811 812 814 816
788 791 800 809 811 806 799 793 791 789 787 781 776 781 778 775 774 774 774 773 773 774 775 777 778 779 780 782 785 788 790 791 793 794 795 796 797 797 797 799 801 803 805 809 810 812 813 813 814
791 796 803 807 810 802 797 793 791 792 788 782 779 782 781 776 775 775 774 774 774 775 776 777 778 780 781 783 784 785 787 789 791 793 795 796 796 797 798 799 801 803 805 806 809 811 813 813 813
796 799 806 812 810 804 796 790 796 795 791 789 785 786 780 775 776 775 776 775 775 774 775 776 777 778 780 782 785 785 786 788 789 790 792 795 797 798 800 801 802 804 806 807 807 809 811 812 814
797 801 811 812 810 803 801 796 795 793 792 788 784 790 788 778 776 775 774 774 775 775 775 775 776 778 780 781 784 785 787 788 789 790 791 793 796 799 800 802 803 804 805 808 808 809 810 812 813
799 803 808 808 811 803 801 801 796 791 791 790 786 786 784 780 778 775 774 774 774 774 774 774 775 776 778 779 782 783 784 786 788 790 792 794 795 797 799 800 802 804 805 806 809 810 811 812 814
800 806 803 804 804 805 803 801 797 793 792 790 786 784 784 782 780 777 774 772 772 772 772 773 774 775 776 777 780 781 781 782 784 786 789 791 792 794 797 798 800 801 804 805 807 811 813 813 814
807 803 805 804 804 805 807 804 801 797 796 790 789 783 781 780 779 779 775 773 772 772 771 771 772 773 774 775 777 778 780 780 782 783 785 788 789 790 792 794 797 800 802 804 806 808 810 811 811
807 805 806 803 803 806 805 802 801 798 793 790 788 787 783 782 781 777 773 770 770 771 772 771 771 771 771 773 774 776 776 778 779 781 782 783 786 788 789 791 792 794 797 800 802 803 805 808 808
805 806 804 803 804 802 802 801 800 795 792 790 788 785 785 786 784 779 775 771 770 771 771 771 771 771 771 772 773 774 775 776 777 777 779 780 782 784 787 788 790 790 793 796 797 799 801 802 804
805 805 803 801 797 800 801 797 799 793 791 789 786 786 789 790 788 784 778 776 774 774 772 772 771 771 771 771 772 773 774 775 776 776 776 777 778 781 782 785 786 789 786 787 793 795 798 799 799
804 805 802 796 796 797 798 798 797 791 791 789 786 788 794 796 793 791 790 787 783 780 779 775 774 773 772 772 771 772 773 775 775 775 775 776 777 777 779 779 779 781 785 782 788 789 794 795 796
807 810 805 798 797 799 794 801 792 788 790 786 786 790 796 800 800 799 796 794 791 786 784 781 777 776 774 773 774 773 772 773 774 776 777 777 775 776 775 774 772 775 773 775 779 789 789 787 790
815 807 813 805 801 801 802 803 791 787 789 786 784 794 799 803 804 803 801 800 797 792 790 786 783 780 779 778 778 777 776 774 774 776 776 776 774 775 773 773 772 772 771 773 770 780 782 785 783
809 813 815 814 803 801 804 800 795 789 788 789 791 797 802 806 809 808 805 803 800 798 795 792 789 785 783 781 781 780 779 778 776 776 777 777 776 774 772 771 769 766 765 766 767 770 774 771 772
810 812 814 810 805 809 801 799 793 786 794 795 794 800 805 807 810 808 807 805 803 801 799 797 794 791 787 784 782 781 780 781 780 779 778 777 776 774 770 766 765 765 764 763 764 766 764 766 767
810 811 809 807 802 801 797 794 787 797 805 807 802 804 807 808 809 809 808 807 805 805 804 802 800 797 793 791 791 789 786 782 780 779 778 776 774 774 772 769 766 766 765 764 763 762 761 761 763
811 811 808 807 801 798 795 788 796 806 808 809 811 811 811 811 810 810 809 809 808 805 805 804 803 801 798 794 792 789 787 784 781 779 778 776 773 775 772 770 768 763 764 763 762 761 759 756 754
811 801 803 804 804 803 799 796 793 800 809 811 812 812 812 811 811 810 809 809 808 807 806 805 803 802 800 797 794 792 790 787 784 781 778 775 772 774 772 769 766 764 761 759 757 756 756 753 748
801 799 801 801 802 805 799 800 789 800 802 808 811 811 811 811 811 811 813 813 813 811 809 806 803 802 801 799 797 794 792 789 784 781 776 775 773 774 771 769 764 760 759 754 755 754 753 752 749
795 798 802 808 804 801 789 790 783 790 786 801 806 808 810 810 812 813 814 814 814 812 810 808 804 804 803 801 799 796 792 789 786 784 779 775 771 770 768 766 762 759 756 751 749 749 747 744 741
796 802 805 803 806 793 792 792 770 782 787 787 797 802 806 810 812 814 814 814 813 813 809 807 806 804 802 800 800 796 793 790 788 784 778 775 770 767 764 760 755 754 752 749 746 745 743 739 737
797 796 798 801 800 790 797 784 767 782 786 791 797 800 805 809 813 814 816 816 816 812 810 808 809 803 802 801 800 796 793 789 785 782 779 775 769 765 759 753 751 749 746 744 741 740 738 734 732
795 795 791 792 804 799 778 773 777 784 790 794 795 799 803 808 813 817 819 818 816 814 812 812 810 805 804 802 799 795 793 788 785 782 778 773 768 762 756 752 749 744 739 737 735 734 731 728 724
785 786 793 800 799 794 776 774 763 777 777 787 791 793 797 805 814 817 818 818 817 817 816 813 811 808 807 804 801 798 794 790 786 782 777 771 766 761 755 750 746 740 737 735 732 728 723 720 718
789 787 790 789 796 789 777 760 760 760 764 770 780 787 793 803 812 816 817 817 818 818 817 815 813 812 808 806 803 799 795 791 785 781 775 770 765 759 755 750 744 740 735 731 726 721 717 713 711
781 776 777 783 783 789 783 759 764 762 764 768 776 787 798 807 812 815 816 816 818 819 818 816 815 813 811 809 806 801 797 791 786 782 777 773 766 760 755 752 749 743 736 730 724 718 713 708 704